Flag for Canada Weather past 2 weeks in Clarington, Ontario, Canada

Now
54 °F

Light rain. Fog.


Feels Like: 54 °F
Forecast: 50 / 63 °F
Wind: No wind

Location: Peterborough Airport

Current Time: Sep 15, 2014 at 11:51:55 PM

Latest Report: Sep 15, 2014 at 11:00 PM


Visibility: 1 mi

Pressure: 30.04 "Hg

Humidity: 94%

Dew point: 52 °F

Location of ClaringtonLocation

Historic Weather in Clarington — Graph

°F

Clarington temperature yesterday

Maximum temperature yesterday: 55 °F (at 1:00 PM)
Minimum temperature yesterday: 32 °F (at 6:47 AM)
Average temperature yesterday: 44 °F

Past Weeks' High & Low Weather Summary

 TemperatureHumidityPressure
High84 °F (Sep 5, 4:00 PM)100% (Sep 1, 1:56 AM)30.37 "Hg (Sep 1, 1:56 AM)
Low32 °F (Sep 14, 6:47 AM)33% (Sep 8, 4:00 PM)29.51 "Hg (Sep 11, 4:02 AM)
Average60 °F84%30.05 "Hg
* Reported Aug 31 10:00 PM — Sep 15 10:00 PM, Clarington, Weather by CustomWeather, © 2014

Note: Actual official high and low records may vary slightly from our data, if they occured in-between our weather recording intervals... More about our weather records

Advertising

Clarington weather history for previous 24 hours

 ConditionsComfort  
Time TempWeatherWind HumidityBarometerVisibility
10:00 PM
Sep 15
54 °FLight rain. Fog.No wind94%30.05 "Hg4 mi
9:00 PM54 °FLight rain. Overcast.2 mph100%30.06 "Hg8 mi
8:00 PM55 °FLight rain. Overcast.No wind94%30.06 "Hg9 mi
7:00 PM55 °FLight rain. More clouds than sun.6 mph94%30.07 "Hg9 mi
6:50 PM55 °FRain. Cloudy.7 mph94%30.07 "Hg8 mi
6:00 PM55 °FLight rain. Overcast.7 mph88%30.07 "Hg9 mi
5:00 PM59 °FMore clouds than sun.6 mph72%30.07 "Hg9 mi
4:00 PM61 °FOvercast.7 mph63%30.09 "Hg9 mi
3:00 PM63 °FBroken clouds.10 mph56%30.10 "Hg9 mi
2:00 PM63 °FBroken clouds.10 mph52%30.11 "Hg9 mi
1:00 PM63 °FPartly sunny.10 mph56%30.13 "Hg9 mi
12:00 PM63 °FPartly sunny.13 mph52%30.14 "Hg9 mi
11:00 AM63 °FSunny.8 mph52%30.16 "Hg9 mi
10:00 AM61 °FSunny.6 mph59%30.18 "Hg9 mi
9:00 AM54 °FSunny.No wind82%30.19 "Hg9 mi
8:01 AM48 °FFog.No wind100%30.20 "Hg6 mi
7:58 AM46 °FFog.2 mph100%30.20 "Hg3 mi
7:00 AM43 °FFog.2 mph100%30.21 "Hg3 mi
6:00 AM46 °FFog.No wind100%30.19 "Hg6 mi
5:00 AM48 °FOvercast.No wind94%30.20 "Hg9 mi
4:00 AM48 °FOvercast.3 mph94%30.19 "Hg9 mi
3:00 AM46 °FOvercast.No wind100%30.20 "Hg9 mi
2:00 AM48 °FOvercast.2 mph94%30.20 "Hg9 mi
1:00 AM48 °FOvercast.No wind94%30.20 "Hg9 mi
12:00 AM48 °FMostly cloudy.2 mph94%30.21 "Hg9 mi
11:00 PM
Sep 14
48 °FOvercast.No wind94%30.22 "Hg9 mi
Weather by CustomWeather, © 2014

See weather overviewHow to use our weather pages